Probability
11 11 10 8 9 10 10 9 7 5 4 3 4 6 7 7 9 10 10 10 8 6 5 5 4 4 3 1 1 1 2 3 3 3 2 2 3 3 2 1 1 2 3
12 12 11 10 10 12 13 12 10 7 5 5 7 9 8 8 9 9 10 10 9 7 7 7 6 6 5 3 2 2 3 3 3 3 3 3 3 3 3 2 2 2 2
14 13 14 14 15 16 17 16 13 10 8 8 11 12 11 10 10 11 10 10 9 9 9 9 9 8 7 4 3 3 3 3 3 4 3 3 3 3 4 3 3 3 2
17 16 17 18 20 20 19 17 15 13 11 13 16 17 16 14 13 13 11 9 8 9 9 9 9 8 7 6 4 4 3 3 4 4 4 3 3 4 4 4 3 3 3
21 22 23 23 24 24 22 20 19 18 17 19 22 21 19 15 13 13 11 8 7 8 8 8 8 8 7 6 5 4 4 4 4 4 3 3 3 4 4 4 4 4 4
28 29 30 30 30 30 28 26 26 27 27 28 27 25 21 16 11 9 8 7 7 7 7 8 8 7 7 5 5 4 3 3 4 3 3 3 3 4 5 5 5 6 6
36 36 38 37 35 34 33 33 33 35 36 35 32 27 23 17 9 5 4 6 8 8 8 8 8 7 7 6 5 4 3 3 3 3 3 3 4 5 6 6 6 6 6
39 40 42 41 39 38 38 39 39 40 39 37 34 28 23 16 7 2 2 6 9 10 9 9 9 7 7 7 6 5 4 4 3 3 3 4 5 6 6 6 6 6 6
38 41 44 43 42 43 43 43 42 39 36 33 30 26 21 14 6 1 2 7 11 12 11 9 9 8 6 5 6 6 5 5 4 4 4 4 4 5 6 6 6 6 6
40 43 46 46 45 45 46 46 43 39 34 30 28 25 21 16 8 2 3 9 13 13 11 9 8 6 4 3 4 5 5 4 5 5 5 5 5 5 5 6 6 6 6
44 47 48 48 47 46 46 46 43 40 36 32 30 27 23 18 12 4 3 8 12 12 11 10 8 4 2 1 3 4 4 4 4 5 5 5 6 6 6 6 7 7 7
45 46 47 46 46 45 45 45 43 40 37 35 34 30 25 21 15 7 2 4 9 11 12 11 8 3 1 0 1 2 3 3 3 4 4 4 5 5 6 7 8 8 8
42 42 41 41 41 42 44 44 43 40 38 36 36 32 28 24 17 10 4 3 5 7 9 9 6 1 0 0 0 1 2 2 2 3 4 4 4 3 4 5 7 8 7
38 37 35 34 36 39 40 39 39 38 36 35 35 33 29 24 19 12 7 5 5 5 6 7 5 2 1 1 1 1 1 1 1 2 3 4 3 1 2 4 5 5 4
31 30 29 28 31 35 34 30 28 27 26 26 27 27 25 21 15 11 8 7 6 5 6 7 7 6 4 4 4 3 2 1 1 1 1 2 2 1 2 3 3 2 2
24 24 23 24 27 30 28 23 19 15 12 12 14 16 16 12 8 6 4 3 4 4 5 8 10 9 7 6 5 3 2 3 3 2 1 1 2 2 3 4 3 1 1
21 20 20 21 22 24 24 21 18 12 7 4 4 6 6 4 2 1 1 0 1 1 4 7 9 9 8 7 6 3 2 3 4 4 3 3 3 3 4 4 2 1 0
20 19 18 18 18 19 21 21 19 15 12 8 4 2 1 0 0 0 0 1 1 2 4 7 10 11 11 10 8 7 5 4 5 5 5 6 5 4 3 3 1 0 0
19 19 18 17 16 16 18 19 18 17 15 13 9 5 3 2 2 2 1 2 4 6 7 9 10 12 13 13 13 12 9 7 6 6 6 6 5 4 3 3 2 1 0
19 18 17 17 16 15 15 15 16 15 15 15 13 10 7 7 9 8 5 6 7 9 10 10 11 13 15 16 16 15 12 10 9 7 6 5 4 3 3 3 2 1 1
20 18 16 16 17 17 15 15 15 16 16 16 15 12 10 12 15 15 12 10 9 10 11 10 11 14 16 17 17 16 15 12 10 8 6 4 3 3 3 2 1 1 0
18 18 17 16 18 18 18 18 17 17 17 17 15 12 11 13 16 17 15 13 11 11 10 9 10 12 13 15 15 16 16 14 11 8 5 3 3 3 3 2 0 0 0
16 16 16 17 18 18 19 19 19 18 17 17 15 12 10 11 13 14 14 13 12 10 9 9 9 9 9 11 13 14 14 13 10 5 3 2 2 2 2 1 0 0 0
14 13 13 14 16 17 17 18 18 17 16 15 14 12 10 9 9 11 12 12 11 9 8 8 8 8 8 8 9 10 10 9 6 3 1 1 1 1 1 1 0 0 0
12 11 10 11 13 15 17 16 15 14 13 12 11 11 11 10 10 10 10 10 9 7 6 6 6 7 7 6 6 6 4 3 2 1 0 0 0 0 0 0 0 0 0
10 10 9 10 12 14 15 13 11 10 10 10 11 12 12 12 12 11 9 8 7 6 5 4 5 6 6 5 3 2 1 0 0 0 0 0 0 0 0 0 0 0 0
Wind_Speed
9 8 7 6 6 6 5 4 4 2 2 2 2 1 1 0 0 1 1 0 1 1 1 1 1 1 1 2 2 2 2 2 2 3 3 4 3 3 3 3 3 3 6
9 8 8 7 6 6 6 5 4 3 3 3 2 2 2 1 1 1 1 1 1 1 1 1 2 2 2 2 1 2 1 1 3 3 4 4 4 4 3 3 2 3 4
10 9 8 7 7 6 5 5 5 4 4 3 3 2 2 2 1 1 1 1 2 2 2 2 2 2 2 1 2 2 2 2 3 4 4 3 4 3 4 3 3 2 3
9 9 8 8 7 7 6 6 5 5 5 5 4 3 3 2 2 2 2 2 2 2 2 2 2 1 1 2 2 2 2 3 3 4 4 4 4 4 3 3 3 3 2
9 9 9 8 7 7 7 6 6 5 5 5 5 4 4 3 2 2 2 2 2 2 2 2 2 3 4 2 1 1 3 3 4 4 4 4 4 4 4 3 3 3 3
9 9 8 8 8 8 7 7 6 6 5 5 5 4 4 2 4 2 1 2 2 2 2 2 3 4 4 3 3 3 1 2 2 3 4 4 4 4 3 3 3 3 3
9 8 8 8 8 7 7 7 7 7 6 6 5 5 4 3 4 3 1 1 2 2 2 2 1 3 3 3 4 3 2 1 1 3 3 3 4 4 4 5 3 3 2
9 9 8 8 8 7 7 7 7 6 6 5 5 5 4 4 5 4 3 4 2 2 2 2 1 2 2 1 3 3 3 3 3 4 2 2 2 2 4 4 3 3 3
8 9 9 9 8 8 7 7 6 6 6 6 5 5 5 4 5 5 4 4 3 3 3 2 2 2 3 1 3 3 3 3 3 2 0 0 1 1 3 4 4 4 3
7 7 7 8 8 8 7 6 6 5 5 5 5 5 5 4 6 6 5 4 3 3 4 4 3 2 3 2 4 4 4 3 3 4 4 5 5 6 6 5 4 4 3
6 6 6 6 7 6 6 6 6 5 5 4 4 4 4 4 6 7 5 3 3 3 3 3 4 5 4 3 4 3 2 3 4 4 4 4 4 4 5 5 4 4 4
6 6 6 6 5 5 6 6 5 6 6 5 5 4 4 4 4 6 6 5 4 3 3 2 3 6 4 5 4 2 3 5 5 4 4 4 4 4 4 4 4 4 4
6 6 5 6 5 5 5 6 5 5 5 5 5 5 4 4 5 7 8 7 5 4 1 2 3 6 6 6 6 5 6 6 5 4 4 4 4 3 3 4 5 4 5
6 5 5 5 5 5 4 4 4 4 4 4 4 4 4 4 4 5 5 6 6 5 3 3 6 6 6 3 5 6 6 4 4 4 4 3 3 4 4 4 4 5 5
6 5 5 5 5 4 4 2 4 3 2 3 3 3 3 4 2 2 3 3 3 3 3 4 4 4 5 5 5 4 4 4 5 4 4 4 4 5 4 4 4 5 5
5 5 4 4 4 4 4 3 2 0 3 1 1 2 1 1 4 4 4 3 2 3 4 5 5 5 5 5 5 5 5 5 5 5 5 5 5 5 4 4 5 6 6
4 4 4 4 4 4 4 4 3 2 2 3 3 3 3 3 4 5 5 4 4 6 5 5 5 5 5 5 5 5 5 5 5 5 5 5 5 5 5 5 5 5 5
4 4 3 3 3 4 4 4 4 4 4 4 5 7 6 6 6 6 5 5 4 6 6 6 6 6 6 6 6 5 5 5 5 5 6 6 6 6 6 6 5 6 6
3 3 3 3 3 4 4 4 4 4 4 3 3 5 7 6 6 6 7 5 5 6 6 6 6 6 6 6 6 5 5 5 5 5 6 6 6 6 6 6 6 6 6
2 2 2 3 3 3 4 4 4 4 4 3 3 3 4 5 4 5 6 6 6 6 5 6 6 5 5 6 6 6 6 6 6 6 6 6 6 6 7 8 7 7 6
2 3 4 4 3 3 3 4 4 3 3 3 3 2 3 5 5 5 5 6 6 6 6 6 5 6 6 5 6 6 7 6 6 6 6 6 6 6 7 6 6 6 6
2 2 3 3 3 3 3 3 3 3 3 4 3 3 5 5 5 5 5 5 6 6 6 6 6 5 5 6 6 7 7 7 7 6 6 7 6 7 7 6 6 6 5
2 2 2 3 3 3 4 3 3 3 3 4 4 3 4 5 5 5 5 5 5 5 5 5 6 5 5 5 6 6 7 6 6 6 6 7 6 6 6 6 7 7 6
2 2 2 3 3 4 3 3 3 4 4 4 4 4 4 5 5 5 5 5 5 5 5 5 5 6 7 6 5 5 5 5 6 6 8 7 7 6 6 6 7 8 7
2 2 3 3 3 3 3 3 3 4 4 4 4 4 4 5 5 5 5 4 5 4 5 5 5 5 7 7 6 4 2 3 4 6 7 7 7 7 7 7 7 7 6
2 2 2 2 2 2 3 3 4 4 4 4 4 4 5 5 5 4 4 4 4 4 4 5 5 6 6 6 5 3 2 3 4 5 7 7 7 6 6 6 8 7 6
Wind_Direction
182 181 181 179 179 182 184 183 176 171 166 180 197 198 200 208 239 243 269 212 225 211 216 193 211 226 216 201 205 215 214 209 171 139 129 127 145 139 132 139 138 134 113
178 177 180 181 181 184 181 181 174 174 181 183 194 200 207 183 214 231 239 220 214 202 196 190 196 177 190 235 220 207 192 190 181 155 149 151 161 155 153 171 147 133 127
175 177 174 179 178 181 178 178 178 178 183 188 192 197 196 184 194 208 216 216 209 198 191 187 185 176 193 180 220 199 192 177 167 165 161 153 163 162 166 168 147 164 157
175 176 174 178 177 176 181 183 185 186 186 188 189 191 189 187 190 202 197 197 202 190 177 168 164 175 162 185 199 198 187 173 171 176 164 164 161 166 190 181 174 186 187
178 180 177 177 178 178 182 185 186 191 193 185 184 186 188 184 187 198 199 179 189 179 154 147 116 77 50 14 336 166 176 194 183 176 168 168 166 178 197 196 186 188 182
180 183 177 176 178 181 184 182 182 188 189 183 185 185 189 173 91 74 313 139 159 157 144 144 143 138 116 94 50 47 30 211 193 187 185 182 183 196 200 214 208 212 192
179 180 181 180 181 182 182 179 181 183 182 184 184 184 181 132 126 136 174 192 163 152 159 184 187 126 160 154 144 162 155 18 295 252 207 203 191 196 208 219 220 238 235
174 176 182 184 183 181 180 181 181 180 181 182 183 182 177 151 148 164 196 201 182 172 174 180 182 157 149 172 175 174 183 178 204 229 228 233 221 199 219 234 231 221 219
177 176 182 185 185 182 182 181 181 181 182 186 183 185 184 162 159 174 212 193 181 185 184 181 194 170 112 263 202 187 190 180 155 140 50 129 99 186 246 233 214 222 223
179 179 179 183 185 185 181 180 176 180 184 188 180 185 185 176 161 176 217 215 187 195 183 179 152 150 142 209 216 201 201 202 193 175 181 189 198 192 206 232 232 233 234
169 170 173 178 182 180 175 175 174 178 180 188 177 180 181 175 165 174 205 238 211 211 200 193 150 143 168 211 243 226 213 234 220 213 207 198 196 196 201 209 232 248 252
164 164 164 169 175 168 169 171 175 178 180 182 181 185 178 173 175 175 191 225 272 232 230 209 132 152 186 215 229 213 203 236 234 222 221 218 213 212 208 211 221 244 265
162 162 162 165 164 160 164 169 177 185 193 187 187 190 188 178 167 174 189 206 226 239 239 78 123 173 197 206 207 213 214 225 231 229 233 232 227 222 220 210 211 221 237
164 162 162 162 164 164 172 176 185 187 196 197 198 199 193 188 185 174 186 191 199 213 224 171 180 195 221 224 199 208 222 229 237 237 239 239 233 219 220 221 221 213 219
167 166 171 172 166 162 173 184 205 196 202 214 211 207 209 208 179 167 212 205 208 199 203 207 204 198 209 216 218 217 220 216 225 237 243 241 236 232 227 225 228 230 232
173 176 182 183 172 176 170 175 94 51 108 123 334 282 211 122 136 161 193 209 188 164 205 221 218 219 222 222 225 222 218 220 225 230 233 239 238 236 231 224 225 231 234
186 185 191 187 183 192 193 193 185 169 165 190 206 221 235 189 175 181 191 198 193 179 213 230 232 231 232 229 228 230 231 223 223 231 235 238 242 242 237 232 229 236 241
198 187 201 198 198 200 204 211 212 206 201 202 198 203 205 203 202 195 183 180 196 204 227 235 236 235 236 237 235 234 235 230 224 231 236 240 241 244 242 239 234 236 241
200 195 204 213 213 207 205 215 219 217 221 217 199 180 190 192 192 191 187 214 226 225 228 234 240 241 240 238 238 235 234 235 233 236 236 239 241 241 242 244 242 235 245
186 170 215 217 215 210 209 215 216 218 221 223 226 220 178 188 199 191 203 223 236 242 245 245 245 248 249 245 241 238 235 234 235 235 239 240 239 239 239 240 245 242 238
180 167 196 215 213 214 215 216 217 221 222 224 229 219 229 229 227 223 221 224 234 244 248 252 251 249 247 245 243 241 239 238 237 239 240 240 239 239 240 241 243 246 247
199 193 202 210 209 213 222 226 230 230 229 236 239 210 203 237 243 240 239 236 237 242 246 248 249 248 249 246 244 243 243 245 245 243 242 241 238 241 241 239 240 243 245
212 213 215 212 213 209 224 228 231 239 240 240 242 239 228 243 249 248 249 250 248 247 248 249 254 254 251 248 249 249 250 251 252 251 247 244 241 239 238 239 240 242 243
210 214 219 215 217 221 223 225 233 241 244 243 244 242 241 243 249 252 254 254 251 250 250 250 253 258 259 258 252 249 251 260 261 253 249 247 245 244 240 236 237 239 240
225 222 222 219 223 227 227 231 238 243 247 251 250 249 251 251 252 254 256 256 255 255 257 257 258 257 258 261 266 271 267 250 252 262 251 247 246 243 243 241 240 240 239
235 234 238 239 239 245 243 242 245 252 254 256 257 255 257 258 257 259 261 262 261 257 258 256 261 264 263 260 268 275 241 225 232 246 255 250 246 241 240 240 240 237 236